Content
SEND FEEDBACK

Daily
Averages
Monthly
Summary
United States of America

OVERLAND PARK, KANSAS


Home > North America > United States > Kansas
Elevation: 1036 feet     Latitude: 38 53N     Longitude: 094 46W

WEATHER
 
SELECT A DAY
Number of Records: 194,768;   Date Range: 1/1/95 - 8/30/14
 
SHARE

PRINT THIS DATA

[ ← Previous Day ]
WEATHER ALMANAC - JANUARY 3, 2013
[ Next Day → ]
[ °C ]   °F
Weather ElementAverageHighLow
Temperature28.3 °F35.1 °F (1:53 pm)21.9 °F (6:53 am)
Dewpoint21.5 °F24.1 °F (10:53 am)18 °F (11:53 pm)
Humidity76.4 %92 % (3:53 am)59 % (2:53 pm)
Barometer30.38 in30.43 in (10:53 am)30.28 in (1:53 am)
Wind Speed4.8 mph10.4 mph (10:53 am)
Weather ElementAverage
Visibility8.4 mi
Wind DirectionWSW (240.4 °)

Weather ElementTotal
Precipitation---
Heating Degree Days36.5 (Base 65)
Averaged from 23 records on January 3, 2013
WEATHER CONDITIONS BREAKOUT
WIND DIRECTION BREAKOUT
WEATHER BY HOUR - JANUARY 3, 2013
[ °C ]   °F
Local TimeTemperatureDewpointHumidityBarometerVisibilityWind DirectionWind SpeedGust SpeedPrecipitationEventsConditions
1:53 AM27.0 °F21.9 °F81 %30.28 in8.0 miWest (270°)4.6 mphOvercast
2:53 AM24.1 °F19.9 °F84 %30.31 in7.0 miWest (260°)4.6 mphClear
3:53 AM23.0 °F21.0 °F92 %30.32 in6.0 miWNW (290°)4.6 mphScattered Clouds
4:53 AM24.1 °F21.9 °F91 %30.31 in6.0 miWNW (300°)4.6 mphOvercast
5:53 AM24.1 °F21.0 °F88 %30.32 in6.0 miCalmMostly Cloudy
6:53 AM21.9 °F19.9 °F92 %30.35 in5.0 miWSW (240°)3.5 mphPartly Cloudy
7:53 AM23.0 °F21.0 °F92 %30.38 in4.0 miWSW (250°)4.6 mphClear
8:53 AM25.0 °F21.0 °F85 %30.40 in6.0 miWest (270°)5.8 mphClear
9:53 AM28.0 °F23.0 °F81 %30.42 in8.0 miNW (320°)4.6 mphClear
10:53 AM32.0 °F24.1 °F73 %30.43 in10.0 miNNW (330°)10.4 mphMostly Cloudy
11:53 AM32.0 °F24.1 °F73 %30.41 in10.0 miNNW (340°)5.8 mph0.00 inOvercast
12:53 PM32.0 °F24.1 °F73 %30.39 in10.0 miWNW (300°)6.9 mphOvercast
1:53 PM35.1 °F23.0 °F61 %30.38 in10.0 miNNW (330°)9.2 mphClear
2:53 PM35.1 °F21.9 °F59 %30.38 in10.0 miNNW (340°)9.2 mphMostly Cloudy
3:53 PM35.1 °F21.9 °F59 %30.39 in10.0 miNorth (350°)8.1 mphMostly Cloudy
4:53 PM33.1 °F19.9 °F59 %30.40 in10.0 miNW (320°)8.1 mphOvercast
5:53 PM32.0 °F21.9 °F66 %30.42 in10.0 miNNW (330°)5.8 mphOvercast
6:53 PM30.9 °F21.0 °F67 %30.43 in10.0 miNNW (330°)4.6 mphOvercast
7:53 PM30.0 °F21.0 °F69 %30.43 in10.0 miNorth (360°)4.6 mphMostly Cloudy
8:53 PM28.9 °F21.0 °F72 %30.43 in10.0 miCalmOvercast
9:53 PM28.0 °F21.0 °F75 %30.43 in10.0 miCalmMostly Cloudy
10:53 PM25.0 °F19.9 °F81 %30.42 in9.0 miCalmClear
11:53 PM21.9 °F18.0 °F85 %30.42 in8.0 miCalmClear
Hourly data recorded from KOJC, located miles away from Overland Park, Kansas







STORIES FROM OUR PARTNERS